Retour au catalogue

FENGYUN 1C DEB

ActifSSO
NORAD 30317·DEBRIS·🇨🇳 China

Lancé May 10, 1999 depuis Taiyuan Satellite Launch Center

Loading…

Prochains Passages (prochaines 24 heures)

TLE

FraisSource: Space-Track

Époque: Sep 14, 2026, 10:18 UTC

1 30317U 99025AAE 26257.42952158  .00000283  00000-0  19468-3 0  9991
2 30317  98.7968 255.2931 0024379 218.9876 140.9536 14.07067562  8875

Suivez FENGYUN 1C DEB en temps réel avec AllMySat

Download on the App Store